Hourly Weather Rublevsk

Today, 13 April, Tuesday

Time Temperature Precipitation Wind Pressure Humidity
00:00 +10°C° 0 mm 1 mps 749 mmHg 91%
01:00 +10°C° 0 mm 1 mps 749 mmHg 91%
02:00 +10°C° 0 mm 1 mps 749 mmHg 91%
03:00 +9°C° 0 mm 1 mps 749 mmHg 92%
04:00 +9°C° 0 mm 1 mps 749 mmHg 92%
05:00 +8°C° 0 mm 0 mps 748 mmHg 92%
06:00 +10°C° 0 mm 1 mps 748 mmHg 89%
07:00 +11°C° 0 mm 1 mps 748 mmHg 85%
08:00 +12°C° 0 mm 1 mps 748 mmHg 81%
09:00 +12°C° 0 mm 1 mps 748 mmHg 81%
10:00 +13°C° 0 mm 2 mps 748 mmHg 81%
11:00 +13°C° 0 mm 2 mps 748 mmHg 81%
12:00 +13°C° 0 mm 2 mps 748 mmHg 83%
13:00 +13°C° 0 mm 2 mps 748 mmHg 85%
14:00 +13°C° 0 mm 2 mps 748 mmHg 87%
15:00 +12°C° 0 mm 2 mps 747 mmHg 87%
16:00 +12°C° 0 mm 2 mps 747 mmHg 88%
17:00 +11°C° 0 mm 3 mps 747 mmHg 88%
18:00 +11°C° 0.1 mm 3 mps 747 mmHg 90%
19:00 +10°C° 0.1 mm 3 mps 747 mmHg 92%
20:00 +10°C° 0.1 mm 3 mps 747 mmHg 94%
21:00 +9°C° 0.1 mm 3 mps 746 mmHg 95%
22:00 +9°C° 0.1 mm 3 mps 746 mmHg 95%
23:00 +8°C° 0.1 mm 2 mps 746 mmHg 96%

Tomorrow, 14 April, Wednesday

Time Temperature Precipitation Wind Pressure Humidity
00:00 +8°C° 0 mm 2 mps 746 mmHg 96%
01:00 +8°C° 0 mm 2 mps 746 mmHg 95%
02:00 +8°C° 0 mm 2 mps 746 mmHg 95%
03:00 +8°C° 0 mm 2 mps 745 mmHg 96%
04:00 +8°C° 0 mm 2 mps 745 mmHg 96%
05:00 +8°C° 0 mm 2 mps 745 mmHg 96%
06:00 +9°C° 0.1 mm 2 mps 745 mmHg 93%
07:00 +10°C° 0.1 mm 2 mps 745 mmHg 90%
08:00 +10°C° 0.1 mm 2 mps 745 mmHg 86%
09:00 +11°C° 0.3 mm 3 mps 745 mmHg 84%
10:00 +11°C° 0.3 mm 3 mps 745 mmHg 81%
11:00 +11°C° 0.3 mm 4 mps 745 mmHg 78%
12:00 +12°C° 0.1 mm 4 mps 745 mmHg 73%
13:00 +13°C° 0.1 mm 4 mps 745 mmHg 68%
14:00 +14°C° 0.1 mm 4 mps 745 mmHg 62%
15:00 +13°C° 0.1 mm 3 mps 744 mmHg 65%
16:00 +13°C° 0.1 mm 3 mps 744 mmHg 67%
17:00 +14°C° 0.1 mm 2 mps 744 mmHg 69%
18:00 +13°C° 0.1 mm 2 mps 744 mmHg 73%
19:00 +12°C° 0.1 mm 1 mps 744 mmHg 76%
20:00 +10°C° 0.1 mm 0 mps 745 mmHg 80%
21:00 +11°C° 0 mm 1 mps 744 mmHg 82%
22:00 +10°C° 0 mm 1 mps 744 mmHg 84%
23:00 +10°C° 0 mm 1 mps 744 mmHg 86%

Day after tomorrow, 15 April, Thursday

Time Temperature Precipitation Wind Pressure Humidity
00:00 +9°C° 0 mm 1 mps 744 mmHg 88%
01:00 +8°C° 0 mm 2 mps 744 mmHg 90%
02:00 +8°C° 0 mm 2 mps 744 mmHg 93%
03:00 +8°C° 0 mm 2 mps 744 mmHg 94%
04:00 +8°C° 0 mm 2 mps 744 mmHg 95%
05:00 +7°C° 0 mm 2 mps 744 mmHg 96%
06:00 +8°C° 0.1 mm 2 mps 744 mmHg 94%
07:00 +9°C° 0.1 mm 2 mps 744 mmHg 92%
08:00 +9°C° 0.1 mm 2 mps 744 mmHg 89%
09:00 +10°C° 0.1 mm 2 mps 744 mmHg 85%
10:00 +12°C° 0.1 mm 2 mps 744 mmHg 81%
11:00 +13°C° 0.1 mm 2 mps 744 mmHg 77%
12:00 +13°C° 0.1 mm 2 mps 744 mmHg 74%
13:00 +13°C° 0.1 mm 3 mps 744 mmHg 70%
14:00 +13°C° 0.1 mm 3 mps 744 mmHg 67%
15:00 +13°C° 0.2 mm 3 mps 744 mmHg 71%
16:00 +12°C° 0.2 mm 4 mps 744 mmHg 75%
17:00 +12°C° 0.2 mm 4 mps 743 mmHg 79%
18:00 +11°C° 0.9 mm 4 mps 743 mmHg 83%
19:00 +11°C° 0.9 mm 4 mps 744 mmHg 87%
20:00 +10°C° 0.9 mm 4 mps 744 mmHg 91%
21:00 +10°C° 0.3 mm 4 mps 744 mmHg 91%
22:00 +10°C° 0.3 mm 4 mps 743 mmHg 91%
23:00 +10°C° 0.3 mm 4 mps 743 mmHg 91%

16 April, Friday

Time Temperature Precipitation Wind Pressure Humidity
00:00 +9°C° 0.3 mm 5 mps 743 mmHg 91%
01:00 +8°C° 0.3 mm 5 mps 743 mmHg 91%
02:00 +8°C° 0.3 mm 5 mps 743 mmHg 91%
03:00 +8°C° 0 mm 5 mps 744 mmHg 92%
04:00 +7°C° 0 mm 5 mps 744 mmHg 93%
05:00 +7°C° 0 mm 4 mps 744 mmHg 94%
06:00 +7°C° 0 mm 5 mps 744 mmHg 91%
07:00 +8°C° 0 mm 5 mps 745 mmHg 88%
08:00 +9°C° 0 mm 6 mps 745 mmHg 84%
09:00 +9°C° 0.1 mm 6 mps 745 mmHg 84%
10:00 +10°C° 0.1 mm 6 mps 745 mmHg 83%
11:00 +10°C° 0.1 mm 6 mps 745 mmHg 82%
12:00 +10°C° 1.1 mm 5 mps 745 mmHg 84%
13:00 +9°C° 1.1 mm 5 mps 745 mmHg 86%
14:00 +9°C° 1.1 mm 5 mps 746 mmHg 87%
15:00 +9°C° 0.3 mm 5 mps 746 mmHg 87%
16:00 +9°C° 0.3 mm 6 mps 746 mmHg 86%
17:00 +10°C° 0.3 mm 7 mps 746 mmHg 86%
18:00 +9°C° 0.2 mm 6 mps 746 mmHg 87%
19:00 +9°C° 0.2 mm 6 mps 747 mmHg 89%
20:00 +8°C° 0.2 mm 6 mps 747 mmHg 90%
21:00 +8°C° 0.1 mm 6 mps 748 mmHg 90%
22:00 +8°C° 0.1 mm 6 mps 748 mmHg 89%
23:00 +8°C° 0.1 mm 5 mps 748 mmHg 88%

17 April, Saturday

Time Temperature Precipitation Wind Pressure Humidity
00:00 +8°C° 0 mm 5 mps 748 mmHg 88%
01:00 +8°C° 0 mm 5 mps 748 mmHg 89%
02:00 +8°C° 0 mm 5 mps 749 mmHg 89%
03:00 +7°C° 0 mm 6 mps 749 mmHg 89%
04:00 +7°C° 0 mm 6 mps 749 mmHg 90%
05:00 +7°C° 0 mm 6 mps 749 mmHg 90%
06:00 +7°C° 0.1 mm 6 mps 750 mmHg 88%
07:00 +7°C° 0.1 mm 6 mps 750 mmHg 87%
08:00 +7°C° 0.1 mm 6 mps 751 mmHg 85%
09:00 +8°C° 0 mm 6 mps 751 mmHg 81%
10:00 +9°C° 0 mm 6 mps 751 mmHg 76%
11:00 +10°C° 0 mm 7 mps 751 mmHg 72%
12:00 +11°C° 0 mm 7 mps 751 mmHg 67%
13:00 +12°C° 0 mm 7 mps 752 mmHg 63%
14:00 +12°C° 0 mm 7 mps 752 mmHg 59%
15:00 +12°C° 0 mm 7 mps 752 mmHg 57%
16:00 +13°C° 0 mm 6 mps 752 mmHg 56%
17:00 +13°C° 0 mm 6 mps 752 mmHg 55%
18:00 +10°C° 0 mm 6 mps 753 mmHg 58%
19:00 +9°C° 0 mm 5 mps 753 mmHg 61%
20:00 +7°C° 0 mm 4 mps 753 mmHg 64%
21:00 +7°C° 0 mm 4 mps 754 mmHg 65%
22:00 +6°C° 0 mm 4 mps 754 mmHg 67%
23:00 +5°C° 0 mm 5 mps 754 mmHg 69%

18 April, Sunday

Time Temperature Precipitation Wind Pressure Humidity
00:00 +5°C° 0 mm 5 mps 754 mmHg 70%
01:00 +4°C° 0 mm 4 mps 754 mmHg 72%
02:00 +4°C° 0 mm 4 mps 755 mmHg 73%
03:00 +3°C° 0 mm 4 mps 755 mmHg 75%
04:00 +3°C° 0 mm 4 mps 755 mmHg 76%
05:00 +3°C° 0 mm 4 mps 755 mmHg 78%
06:00 +3°C° 0 mm 5 mps 755 mmHg 73%
07:00 +5°C° 0 mm 5 mps 756 mmHg 69%
08:00 +6°C° 0 mm 5 mps 756 mmHg 65%
09:00 +8°C° 0 mm 5 mps 756 mmHg 60%
10:00 +9°C° 0 mm 5 mps 756 mmHg 56%
11:00 +10°C° 0 mm 5 mps 756 mmHg 51%
12:00 +12°C° 0 mm 5 mps 756 mmHg 50%
13:00 +13°C° 0 mm 5 mps 756 mmHg 49%
14:00 +13°C° 0 mm 5 mps 756 mmHg 48%
15:00 +13°C° 0 mm 5 mps 756 mmHg 51%
16:00 +13°C° 0 mm 4 mps 756 mmHg 53%
17:00 +13°C° 0 mm 4 mps 756 mmHg 55%
18:00 +11°C° 0 mm 3 mps 756 mmHg 60%
19:00 +10°C° 0 mm 3 mps 756 mmHg 66%
20:00 +9°C° 0 mm 3 mps 756 mmHg 71%
21:00 +8°C° 0 mm 3 mps 756 mmHg 72%
22:00 +8°C° 0 mm 3 mps 756 mmHg 72%
23:00 +7°C° 0 mm 3 mps 756 mmHg 73%
Show more